{"data":{"norad_id":51643,"intl_designator":"2022-012X","name":"ONEWEB-0451","alt_names":[],"object_type":"PAYLOAD","status":"ACTIVE","operator":null,"country":"UK","launch_date":"2022-02-10","launch_site_code":"FRGUI","launch_vehicle":null,"mission":null,"orbit_class":"UNKNOWN","rcs_meters":null,"size_class":null,"mass_kg":null,"dimensions":null,"purposes":["comms"],"wikipedia_slug":null,"has_3d_model":false,"image_url":null,"decayed_at":null,"tle_current":{"epoch":"2026-09-20T04:55:11.093664Z","epoch_age_seconds":51274,"freshness":"FRESH","line1":"1 51643U 22012X   26263.20498951  .00000006  00000+0 -17318-4 0  9993","line2":"2 51643  87.9209 346.9842 0002015 104.9824 255.1530 13.17648925226173","mean_motion":13.17648925,"eccentricity":0.0002015,"inclination_deg":87.9209,"raan_deg":346.9842,"arg_perigee_deg":104.9824,"mean_anomaly_deg":255.153,"bstar":-1.7318e-5,"rev_number":22617,"period_min":109.28555950516,"perigee_km":1192.1878193027,"apogee_km":1195.2392750732,"semimajor_km":7571.850547188,"source":"CELESTRAK","updated_at":"2026-09-20T09:00:44.712153Z"}}}